Left ArrowRight Arrow

34.74481, -87.66753

Hourly Observations for February 6, 2015

Temp ( °F °C ) Dew Point ( °F °C ) Humidity (%) Winds ( mph kmh ) Pressure ( in mb ) Visibility ( mi km ) Precip ( " mm )
12:53 am 00:53 Clear 25 -3.9 12 -11.1 58 58 Calm 30.42 1030 10 16 0.00 0.00
1:53 am 01:53 Clear 24 -4.4 16 -8.9 71 71 Calm 30.42 1030 10 16 0.00 0.00
2:53 am 02:53 Clear 24 -4.4 13 -10.6 62 62 Calm 30.41 1030 10 16 0.00 0.00
3:53 am 03:53 Clear 22 -5.6 15 -9.4 75 75 Calm 30.41 1030 10 16 0.00 0.00
4:53 am 04:53 Clear 21 -6.1 15 -9.4 78 78 Calm 30.41 1030 10 16 0.00 0.00
5:53 am 05:53 Clear 21 -6.1 15 -9.4 78 78 Calm 30.41 1030 10 16 0.00 0.00
6:53 am 06:53 Sunny 20 -6.7 15 -9.4 81 81 Calm 30.43 1031 8 13 0.00 0.00
7:53 am 07:53 Sunny 25 -3.9 17 -8.3 72 72 Calm 30.45 1031 10 16 0.00 0.00
8:53 am 08:53 Sunny 30 -1.1 15 -9.4 54 54 Calm 30.45 1031 10 16 0.00 0.00
9:53 am 09:53 Sunny 34 1.1 17 -8.3 50 50 S 5 7 30.45 1031 10 16 0.00 0.00
10:53 am 10:53 Sunny 40 4.4 17 -8.3 40 40 Calm 30.43 1031 10 16 0.00 0.00
11:53 am 11:53 Sunny 45 7.2 11 -11.7 25 25 SSW 3 6 30.38 1029 10 16 0.00 0.00
12:53 pm 12:53 Sunny 49 9.4 9 -12.8 20 20 Calm 30.36 1028 10 16 0.00 0.00
1:53 pm 13:53 Sunny 51 10.6 12 -11.1 21 21 VRB 3 6 30.35 1028 10 16 0.00 0.00
2:53 pm 14:53 Sunny 52 11.1 11 -11.7 19 19 Calm 30.32 1027 10 16 0.00 0.00
3:53 pm 15:53 Sunny 53 11.7 11 -11.7 18 18 Calm 30.31 1026 10 16 0.00 0.00
4:53 pm 16:53 Sunny 51 10.6 13 -10.6 22 22 WSW 7 11 30.30 1026 10 16 0.00 0.00
5:53 pm 17:53 Clear 47 8.3 11 -11.7 23 23 Calm 30.30 1026 10 16 0.00 0.00
6:53 pm 18:53 Clear 40 4.4 20 -6.7 45 45 S 3 6 30.30 1026 10 16 0.00 0.00
7:53 pm 19:53 Clear 43 6.1 15 -9.4 32 32 S 3 6 30.28 1026 10 16 0.00 0.00
8:53 pm 20:53 Clear 40 4.4 16 -8.9 38 38 Calm 30.27 1025 10 16 0.00 0.00
9:53 pm 21:53 Clear 38 3.3 15 -9.4 39 39 Calm 30.27 1025 10 16 0.00 0.00
10:53 pm 22:53 Clear 38 3.3 19 -7.2 46 46 S 5 7 30.25 1025 10 16 0.00 0.00
11:53 pm 23:53 Clear 34 1.1 18 -7.8 52 52 Calm 30.26 1025 10 16 0.00 0.00

Powered by Vaisala Xweather